Regional Weather Roundup
Issued by NWS

Home | Current Version | Previous Version | Graphics & Text | Print | Product List | Glossary Off
Versions: 1 2 3 4 5 6 7 8 9 10 11 12 13 14 15 16 17 18 19 20 21 22 23 24 25 26 27 28 29 30 31 32 33 34 35 36 37 38 39 40 41 42 43 44 45 46 47 48 49 50

670
ASUS44 KLIX 311110
RWRLA
LOUISIANA WEATHER ROUNDUP
NATIONAL WEATHER SERVICE NEW ORLEANS LA
500 AM CST SAT JAN 31 2015

NOTE: "FAIR" INDICATES FEW OR NO CLOUDS BELOW 12,000 FEET WITH NO
      SIGNIFICANT WEATHER AND/OR OBSTRUCTIONS TO VISIBILITY.
      SKY/WX - SKY CONDITION AND SIGNIFICANT WEATHER.
      TMP - AIR TEMPERATURE.    DP   - DEWPOINT TEMPERATURE.
      RH  - RELATIVE HUMIDITY.  PRES - PRESSURE.
      HX  - HEAT INDEX.         WCI  - WIND CHILL INDEX.

*  THESE STATIONS ARE NOT NWS OR FAA STATIONS AND ARE NOT UNDER
   NWS QUALITY CONTROL.

LAZ040-048-061>063-065-066-069-311200-
SOUTHEAST LOUISIANA

CITY           SKY/WX    TMP DP  RH WIND       PRES   REMARKS
N.O. AUDUBON     N/A     47  38  71 MISG        N/A
N.O. INTL ARPT PTCLDY    46  32  58 E8        30.28F
N.O. LAKEFRONT CLEAR     48  35  60 E14       30.29S
N.O. DOWNTOWN* NOT AVBL
SLIDELL        CLEAR     40  29  64 CALM      30.28S
BATON ROUGE    CLEAR     36  30  79 NE7       30.28F WCI  30
BOOTHVILLE     CLEAR     51  43  74 NE8       30.27S
BELLE CHASSE   PTCLDY    43  36  76 NE6       30.28S
BOGALUSA*        N/A     33  30  89 N5        30.31F WCI  29
GALLIANO*      SUNNY     51  43  73 NE3       30.27S
NEW ROADS*     FAIR      41  30  65 E10       30.28F
GONZALES*      FAIR      42  33  72 CALM      30.27F
HAMMOND*       CLEAR     36  30  80 CALM      30.31S
HOUMA*         CLEAR     42  38  84 NE7       30.27S
PORT FOURCHON* SUNNY     54  45  71 NE10      30.29S

$$

LAZ041-044-053-054-311200-
SOUTHWEST LOUISIANA

CITY           SKY/WX    TMP DP  RH WIND       PRES   REMARKS
LAKE CHARLES   CLEAR     39  35  86 NE7       30.26R WCI  34
LAFAYETTE      CLEAR     43  33  68 E5        30.26F
PATTERSON      CLEAR     43  36  75 E7        30.26F
SALT POINT       N/A     43  37  79 E3        30.24F
NEW IBERIA     CLEAR     43  33  68 E7        30.26F
CHENAULT AIRPK NOT AVBL

$$

LAZ027-028-311200-
CENTRAL LOUISIANA

CITY           SKY/WX    TMP DP  RH WIND       PRES   REMARKS
FORT POLK      PTCLDY    41  33  74 E6        30.26S
ALEXANDRIA INT MOCLDY    41  33  73 NE6       30.28S
ALEXANDRIA     PTCLDY    41  34  76 E6        30.29F

$$

LAZ001-002-311200-
NORTHWEST LOUISIANA

CITY           SKY/WX    TMP DP  RH WIND       PRES   REMARKS
SHREVEPORT     CLOUDY    43  32  65 E6        30.28F
BARKSDALE AFB  CLOUDY    42  30  62 E2        30.29S
DTN SHREVEPORT CLOUDY    42  30  62 E3        30.29F

$$

LAZ014-016-311200-
NORTHEAST LOUISIANA

CITY           SKY/WX    TMP DP  RH WIND       PRES   REMARKS
MONROE         PTCLDY    38  30  73 E7        30.33F WCI  33
TALLULAH       CLOUDY    39  32  76 N5        30.35R

$$




USA.gov is the U.S. government's official web portal to all federal, state and local government web resources and services.